When you browse on this site, cookies collect data to enhance your experience and personalize the content and advertising you see.
Visit our Privacy Policy to learn more. By continuing to use the site, you agree to this use of cookies and data.
  • In Switzerland
  • List of Countries
  • For 7 days
  • Water Temperature
  • Satellite Maps
  • Weather Map
  • Weather Widgets
  • user-avatar
    Login

    Hourly Weather Straubing

    Today, 26 May, Sunday

    Time Temperature Precipitation Wind Pressure Humidity
    00:00 +13°C° 0 mm 1 mps 733 mmHg 88%
    01:00 +12°C° 0 mm 1 mps 733 mmHg 91%
    02:00 +12°C° 0 mm 1 mps 733 mmHg 92%
    03:00 +11°C° 0 mm 1 mps 733 mmHg 93%
    04:00 +11°C° 0 mm 1 mps 733 mmHg 94%
    05:00 +12°C° 0 mm 1 mps 733 mmHg 92%
    06:00 +13°C° 0 mm 1 mps 733 mmHg 89%
    07:00 +14°C° 0 mm 1 mps 733 mmHg 87%
    08:00 +16°C° 0 mm 1 mps 733 mmHg 79%
    09:00 +19°C° 0 mm 1 mps 733 mmHg 72%
    10:00 +21°C° 0 mm 1 mps 733 mmHg 65%
    11:00 +21°C° 0 mm 2 mps 733 mmHg 60%
    12:00 +23°C° 0 mm 2 mps 732 mmHg 55%
    13:00 +24°C° 0 mm 2 mps 732 mmHg 50%
    14:00 +24°C° 0 mm 2 mps 732 mmHg 50%
    15:00 +24°C° 0 mm 2 mps 732 mmHg 50%
    16:00 +24°C° 0 mm 2 mps 732 mmHg 49%
    17:00 +23°C° 0 mm 2 mps 731 mmHg 56%
    18:00 +20°C° 0 mm 2 mps 731 mmHg 62%
    19:00 +20°C° 0 mm 1 mps 731 mmHg 69%
    20:00 +19°C° 0 mm 1 mps 731 mmHg 73%
    21:00 +16°C° 0 mm 1 mps 731 mmHg 78%
    22:00 +14°C° 0 mm 1 mps 731 mmHg 82%
    23:00 +14°C° 0 mm 1 mps 731 mmHg 84%

    Tomorrow, 27 May, Monday

    Time Temperature Precipitation Wind Pressure Humidity
    00:00 +13°C° 0 mm 1 mps 731 mmHg 86%
    01:00 +13°C° 0 mm 1 mps 731 mmHg 87%
    02:00 +11°C° 0 mm 0 mps 731 mmHg 88%
    03:00 +11°C° 0 mm 0 mps 730 mmHg 88%
    04:00 +11°C° 0 mm 0 mps 730 mmHg 89%
    05:00 +12°C° 0 mm 0 mps 730 mmHg 84%
    06:00 +14°C° 0 mm 0 mps 730 mmHg 79%
    07:00 +15°C° 0 mm 0 mps 731 mmHg 74%
    08:00 +19°C° 0 mm 1 mps 730 mmHg 69%
    09:00 +20°C° 0 mm 1 mps 730 mmHg 64%
    10:00 +22°C° 0 mm 1 mps 730 mmHg 60%
    11:00 +23°C° 0 mm 2 mps 730 mmHg 57%
    12:00 +23°C° 0 mm 2 mps 729 mmHg 54%
    13:00 +24°C° 0 mm 2 mps 729 mmHg 52%
    14:00 +24°C° 0.1 mm 2 mps 728 mmHg 54%
    15:00 +24°C° 0.1 mm 1 mps 728 mmHg 56%
    16:00 +24°C° 0.1 mm 1 mps 728 mmHg 58%
    17:00 +21°C° 0.1 mm 2 mps 727 mmHg 67%
    18:00 +20°C° 0.1 mm 2 mps 727 mmHg 76%
    19:00 +18°C° 0.1 mm 2 mps 727 mmHg 85%
    20:00 +17°C° 0.1 mm 2 mps 727 mmHg 88%
    21:00 +16°C° 0.1 mm 2 mps 727 mmHg 90%
    22:00 +16°C° 0.1 mm 2 mps 727 mmHg 93%
    23:00 +15°C° 0.4 mm 2 mps 726 mmHg 94%

    Day after tomorrow, 28 May, Tuesday

    Time Temperature Precipitation Wind Pressure Humidity
    00:00 +15°C° 0.4 mm 2 mps 726 mmHg 95%
    01:00 +15°C° 0.4 mm 2 mps 726 mmHg 96%
    02:00 +15°C° 0.9 mm 2 mps 726 mmHg 96%
    03:00 +14°C° 0.9 mm 2 mps 726 mmHg 97%
    04:00 +14°C° 0.9 mm 2 mps 725 mmHg 97%
    05:00 +14°C° 1.3 mm 2 mps 726 mmHg 97%
    06:00 +14°C° 1.3 mm 2 mps 726 mmHg 97%
    07:00 +14°C° 1.3 mm 2 mps 726 mmHg 97%
    08:00 +13°C° 1.4 mm 3 mps 726 mmHg 96%
    09:00 +13°C° 1.4 mm 3 mps 726 mmHg 95%
    10:00 +14°C° 1.4 mm 4 mps 726 mmHg 94%
    11:00 +14°C° 1 mm 3 mps 727 mmHg 92%
    12:00 +14°C° 1 mm 3 mps 727 mmHg 91%
    13:00 +14°C° 1 mm 3 mps 727 mmHg 89%
    14:00 +14°C° 0.7 mm 3 mps 727 mmHg 88%
    15:00 +14°C° 0.7 mm 3 mps 727 mmHg 88%
    16:00 +14°C° 0.7 mm 3 mps 728 mmHg 88%
    17:00 +14°C° 0.2 mm 2 mps 728 mmHg 89%
    18:00 +14°C° 0.2 mm 2 mps 728 mmHg 91%
    19:00 +13°C° 0.2 mm 1 mps 728 mmHg 93%
    20:00 +13°C° 0 mm 1 mps 728 mmHg 94%
    21:00 +12°C° 0 mm 1 mps 728 mmHg 94%
    22:00 +11°C° 0 mm 1 mps 729 mmHg 95%
    23:00 +11°C° 0 mm 1 mps 729 mmHg 95%

    29 May, Wednesday

    Time Temperature Precipitation Wind Pressure Humidity
    00:00 +11°C° 0 mm 1 mps 729 mmHg 95%
    01:00 +10°C° 0 mm 1 mps 729 mmHg 95%
    02:00 +10°C° 0 mm 1 mps 729 mmHg 95%
    03:00 +10°C° 0 mm 1 mps 729 mmHg 95%
    04:00 +8°C° 0 mm 2 mps 730 mmHg 95%
    05:00 +9°C° 0 mm 2 mps 730 mmHg 94%
    06:00 +10°C° 0 mm 2 mps 730 mmHg 93%
    07:00 +10°C° 0 mm 2 mps 730 mmHg 91%
    08:00 +12°C° 0 mm 2 mps 731 mmHg 87%
    09:00 +12°C° 0 mm 3 mps 731 mmHg 83%
    10:00 +13°C° 0 mm 3 mps 731 mmHg 79%
    11:00 +14°C° 0.2 mm 3 mps 732 mmHg 74%
    12:00 +16°C° 0.2 mm 3 mps 732 mmHg 69%
    13:00 +17°C° 0.2 mm 3 mps 732 mmHg 64%
    14:00 +17°C° 0.5 mm 3 mps 732 mmHg 70%
    15:00 +16°C° 0.5 mm 3 mps 732 mmHg 75%
    16:00 +16°C° 0.5 mm 3 mps 733 mmHg 80%
    17:00 +15°C° 0.9 mm 2 mps 733 mmHg 84%
    18:00 +14°C° 0.9 mm 2 mps 734 mmHg 87%
    19:00 +13°C° 0.9 mm 2 mps 734 mmHg 91%
    20:00 +12°C° 0.1 mm 2 mps 735 mmHg 92%
    21:00 +10°C° 0.1 mm 2 mps 735 mmHg 93%
    22:00 +10°C° 0.1 mm 2 mps 736 mmHg 94%
    23:00 +9°C° 0 mm 2 mps 736 mmHg 94%

    30 May, Thursday

    Time Temperature Precipitation Wind Pressure Humidity
    00:00 +8°C° 0 mm 2 mps 737 mmHg 94%
    01:00 +7°C° 0 mm 2 mps 737 mmHg 95%
    02:00 +7°C° 0 mm 2 mps 737 mmHg 95%
    03:00 +7°C° 0 mm 1 mps 738 mmHg 95%
    04:00 +7°C° 0 mm 1 mps 738 mmHg 95%
    05:00 +8°C° 0 mm 1 mps 738 mmHg 93%
    06:00 +10°C° 0 mm 1 mps 739 mmHg 90%
    07:00 +11°C° 0 mm 1 mps 739 mmHg 88%
    08:00 +13°C° 0 mm 1 mps 739 mmHg 78%
    09:00 +15°C° 0 mm 1 mps 739 mmHg 69%
    10:00 +17°C° 0 mm 2 mps 739 mmHg 60%
    11:00 +18°C° 0 mm 2 mps 739 mmHg 56%
    12:00 +19°C° 0 mm 2 mps 739 mmHg 52%
    13:00 +20°C° 0 mm 2 mps 739 mmHg 48%
    14:00 +20°C° 0 mm 2 mps 739 mmHg 50%
    15:00 +20°C° 0 mm 2 mps 739 mmHg 52%
    16:00 +20°C° 0 mm 2 mps 739 mmHg 54%
    17:00 +18°C° 0.1 mm 2 mps 739 mmHg 62%
    18:00 +17°C° 0.1 mm 2 mps 739 mmHg 70%
    19:00 +16°C° 0.1 mm 1 mps 739 mmHg 77%
    20:00 +15°C° 0 mm 1 mps 739 mmHg 81%
    21:00 +13°C° 0 mm 1 mps 740 mmHg 84%
    22:00 +12°C° 0 mm 1 mps 740 mmHg 88%
    23:00 +11°C° 0 mm 1 mps 740 mmHg 89%

    31 May, Friday

    Time Temperature Precipitation Wind Pressure Humidity
    00:00 +11°C° 0 mm 1 mps 740 mmHg 90%
    01:00 +11°C° 0 mm 1 mps 741 mmHg 91%
    02:00 +10°C° 0 mm 1 mps 741 mmHg 92%
    03:00 +10°C° 0 mm 1 mps 740 mmHg 93%
    04:00 +9°C° 0 mm 1 mps 740 mmHg 94%
    05:00 +10°C° 0 mm 2 mps 741 mmHg 91%
    06:00 +12°C° 0 mm 2 mps 741 mmHg 88%
    07:00 +13°C° 0 mm 2 mps 741 mmHg 86%
    08:00 +13°C° 0.3 mm 2 mps 741 mmHg 88%
    09:00 +13°C° 0.3 mm 2 mps 741 mmHg 91%
    10:00 +12°C° 0.3 mm 2 mps 741 mmHg 94%
    11:00 +12°C° 0.1 mm 3 mps 741 mmHg 92%
    12:00 +13°C° 0.1 mm 3 mps 741 mmHg 90%
    13:00 +14°C° 0.1 mm 3 mps 741 mmHg 88%
    14:00 +16°C° 0.2 mm 2 mps 741 mmHg 86%
    15:00 +17°C° 0.2 mm 2 mps 741 mmHg 85%
    16:00 +18°C° 0.2 mm 2 mps 741 mmHg 83%
    17:00 +18°C° 0.7 mm 1 mps 741 mmHg 86%
    18:00 +18°C° 0.7 mm 1 mps 741 mmHg 89%
    19:00 +18°C° 0.7 mm 1 mps 741 mmHg 92%
    20:00 +16°C° 0.6 mm 1 mps 741 mmHg 93%
    21:00 +15°C° 0.6 mm 1 mps 741 mmHg 95%
    22:00 +14°C° 0.6 mm 1 mps 742 mmHg 96%
    23:00 +14°C° 0.8 mm 1 mps 741 mmHg 97%
    Show more